Location: LDNL
(36.4545°S, 141.6685°E)
Time: 03:41:30
(UTC+10:00)

Courier 1B Rocket - Pass Details

Date: 30 May 2024
Orbit: 920 x 1201 km, 28.3° (Epoch: 14 June)

Event Time Altitude Azimuth Distance (km) Brightness Sun altitude
Exits shadow 04:01:24 26° 41° (NE) 2,135 6.9 -42.4°
Drops below altitude 10° 04:04:53 10° 57° (ENE) 3,116 8.1 -41.7°
Sets 04:07:56 0° 64° (ENE) 4,092 8.9 -41.0°
